sat.trackr.live / text

‹ back to catalog

KUIPER-00009

NORAD 63725 · 2025-088B

PAYLOAD ACTIVE UNKNOWN

§ Identity

Operator
Country
US
Launch date
2025-04-28
Launch site
AFETR
Launch vehicle
Mass (kg)
RCS (m²)

External: N2YO · Heavens-Above · Gunter

§ Orbital elements

Epoch: 2026-09-21T09:23:44.399904Z

Period
95.49 min
Inclination
51.9021°
Eccentricity
0.0000312
Mean motion
15.08077948 rev/d
Perigee alt
541.9 km
Apogee alt
542.3 km
Semi-major
6,920.2 km
B*
3.0513e-4
RAAN
309.7701°
Arg perigee
60.9357°
Mean anomaly
299.1648°
Rev number
7,692

§ Raw data

KUIPER-000091 63725U 25088B   26264.39148611  .00004477  00000+0  30513-3 0  99952 63725  51.9021 309.7701 0000312  60.9357 299.1648 15.08077948 76928

JSON: /api/v1/satellites/63725 · /tle

For live sub-satellite position, see the globe view (requires WebGL).

§ Visibility from observer

Set your observer location to see the next 7 days of passes ≥ 10°. The values pass through the URL so the page stays shareable.

No JS? Fill the form by hand. The geolocation button needs JavaScript.